This demonstration page uses our WeatherBlox Daily Observations layout. Learn more.

Left ArrowRight Arrow

Hourly Observations for July 16, 2015

Temp ( °F °C ) Dew Point ( °F °C ) Humidity (%) Winds ( mph kmh ) Pressure ( in mb ) Visibility ( mi km ) Precip ( " mm )
12:53 am 00:53 Clear 77 25 70 21.1 79 79 Calm 29.92 1013 10 16 0.00 0.00
1:53 am 01:53 Clear 74 23.3 70 21.1 88 88 NE 3 6 29.89 1012 10 16 0.00 0.00
2:53 am 02:53 Clear 73 22.8 69 20.6 87 87 Calm 29.88 1012 10 16 0.00 0.00
3:53 am 03:53 Clear 72 22.2 68 20 87 87 Calm 29.87 1012 10 16 0.00 0.00
4:53 am 04:53 Clear 71 21.7 69 20.6 94 94 Calm 29.88 1012 10 16 0.00 0.00
5:53 am 05:53 Clear 70 21.1 68 20 93 93 Calm 29.90 1013 10 16 0.00 0.00
6:53 am 06:53 Sunny 70 21.1 68 20 93 93 Calm 29.93 1014 8 13 0.00 0.00
7:53 am 07:53 Sunny 73 22.8 68 20 84 84 Calm 29.96 1015 10 16 0.00 0.00
8:53 am 08:53 Sunny 78 25.6 69 20.6 74 74 Calm 29.98 1015 10 16 0.00 0.00
9:53 am 09:53 Sunny 82 27.8 68 20 63 63 VRB 6 9 29.98 1015 10 16 0.00 0.00
10:53 am 10:53 Sunny 83 28.3 66 18.9 57 57 Calm 29.97 1015 10 16 0.00 0.00
11:53 am 11:53 Mostly Sunny 86 30 67 19.4 53 53 VRB 3 6 29.97 1015 10 16 0.00 0.00
12:53 pm 12:53 Sunny 87 30.6 66 18.9 50 50 Calm 29.96 1015 10 16 0.00 0.00
1:53 pm 13:53 Mostly Sunny 88 31.1 65 18.3 46 46 ENE 7 11 29.96 1015 10 16 0.00 0.00
2:53 pm 14:53 Mostly Sunny 90 32.2 64 17.8 42 42 Calm 29.95 1014 10 16 0.00 0.00
3:53 pm 15:53 Mostly Sunny 89 31.7 66 18.9 47 47 VRB 5 7 29.95 1014 10 16 0.00 0.00
4:53 pm 16:53 Cloudy 89 31.7 66 18.9 47 47 W 7 11 29.93 1014 10 16 0.00 0.00
5:53 pm 17:53 Sunny 89 31.7 65 18.3 45 45 W 6 9 29.93 1013 10 16 0.00 0.00
6:53 pm 18:53 Sunny 88 31.1 65 18.3 46 46 WNW 6 9 29.93 1013 10 16 0.00 0.00
7:53 pm 19:53 Mostly Sunny 87 30.6 68 20 53 53 Calm 29.93 1013 10 16 0.00 0.00
8:53 pm 20:53 Partly Cloudy 84 28.9 69 20.6 61 61 NW 3 6 29.94 1014 10 16 0.00 0.00
9:53 pm 21:53 Clear 81 27.2 70 21.1 69 69 Calm 29.95 1014 10 16 0.00 0.00
10:53 pm 22:53 Clear 76 24.4 70 21.1 82 82 Calm 29.97 1015 10 16 0.00 0.00
11:53 pm 23:53 Clear 77 25 70 21.1 79 79 Calm 29.97 1015 10 16 0.00 0.00

Powered by AerisWeather